Retour au catalogue

GALILEO 29

10C

ActifNavigationMEO
NORAD 59598·PAYLOAD·🇪🇺 EU

Lancé Apr 28, 2024 depuis Cape Canaveral Space Force Station

Loading…

Prochains Passages (prochaines 24 heures)

TLE

FraisSource: CelesTrak SupGP

Époque: Sep 13, 2026, 23:59 UTC

1 59598C 24079A   26256.99979167  .00000000  00000+0  00000+0 0  2560
2 59598  55.1769  98.5965 0001501 129.9557 242.0565  1.70474423    15

Suivez GALILEO 29 en temps réel avec AllMySat

Download on the App Store